This demonstration page uses our WeatherBlox Daily Observations layout. Learn more.

Hourly Observations for August 9, 2018

Temp ( °F °C ) Dew Point ( °F °C ) Humidity (%) Winds ( mph kmh ) Pressure ( in mb ) Visibility ( mi km ) Precip ( " mm )
12:15 am 00:15 Clear 67 19.5 67 19.2 98 98 Calm 30 1016 10 16.09344 0 0
12:35 am 00:35 Clear 67 19.5 65 18.5 94 94 Calm 30 1016 10 16.09344 0 0
12:55 am 00:55 Clear 68 20 66 19.1 95 95 S 3 6 30 1016 10 16.09344 0 0
1:15 am 01:15 Clear 67 19.7 65 18.6 93 93 SSW 3 6 30 1016 10 16.09344 0 0
1:35 am 01:35 Clear 68 19.9 66 19 95 95 Calm 30 1016 10 16.09344 0 0
1:55 am 01:55 Clear 65 18.2 64 17.8 98 98 Calm 30 1016 10 16.09344 0 0
2:15 am 02:15 Clear 67 19.2 65 18.3 95 95 Calm 30 1016 10 16.09344 0 0
2:35 am 02:35 Clear 65 18.3 64 18 98 98 Calm 30 1016 10 16.09344 0 0
2:55 am 02:55 Clear 64 18 64 18 100 100 Calm 30 1016 7 11.265408 0 0
3:15 am 03:15 Clear 64 17.9 64 17.8 99 99 SW 3 6 30 1016 10 16.09344 0 0
3:35 am 03:35 Clear 63 17 62 16.7 98 98 Calm 30 1016 10 16.09344 0 0
3:55 am 03:55 Clear 63 17.2 62 16.7 97 97 Calm 30 1016 10 16.09344 0 0
4:10 am 04:10 Clear 64 17.7 63 17.1 96 96 Calm 30 1016 10 16.09344 0 0
4:59 am 04:59 Clear with Mist and Fog 61 16 61 16 100 100 W 5 7 30.03 1017 5 8.04672 0 0
5:16 am 05:16 Clear 63 17 63 17 100 100 Calm 30 1016 7 11.265408 0 0
5:38 am 05:38 Clear with Mist and Fog 61 16 61 16 100 100 Calm 30.03 1017 5 8.04672 0 0
5:56 am 05:56 Clear 63 17 63 17 100 100 Calm 30 1016 10 16.09344 0 0
6:15 am 06:15 Clear with Mist and Fog 61 16 61 16 100 100 W 3 6 30.03 1017 5 8.04672 0 0
6:35 am 06:35 Clear with Mist and Fog 61 16.3 61 16.3 100 100 W 3 6 30.03 1017 5 8.04672 0 0
6:55 am 06:55 Sunny 63 17.3 63 17.3 100 100 WNW 3 6 30 1016 7 11.265408 0 0
7:15 am 07:15 Sunny with Mist and Fog 62 16.5 62 16.5 100 100 Calm 30.03 1017 5 8.04672 0 0
7:35 am 07:35 Sunny with Mist and Fog 62 16.8 62 16.8 100 100 Calm 30 1016 5 8.04672 0 0
7:55 am 07:55 Sunny 65 18.5 65 18.5 100 100 Calm 30.03 1017 7 11.265408 0 0
8:15 am 08:15 Sunny 66 19 65 18.6 98 98 Calm 30.03 1017 7 11.265408 0 0
8:35 am 08:35 Sunny 68 20.2 67 19.4 95 95 Calm 30.03 1017 7 11.265408 0 0
8:55 am 08:55 Sunny 71 21.6 67 19.2 86 86 Calm 30 1016 7 11.265408 0 0
9:15 am 09:15 Sunny 73 22.8 67 19.2 80 80 Calm 30 1016 10 16.09344 0 0
9:35 am 09:35 Sunny 74 23.6 68 20 80 80 Calm 30 1016 10 16.09344 0 0
9:55 am 09:55 Sunny 76 24.5 68 20.2 77 77 Calm 29.97 1015 10 16.09344 0 0
10:15 am 10:15 Sunny 77 25 69 20.5 76 76 Calm 29.97 1015 10 16.09344 0 0
10:35 am 10:35 Sunny 78 25.8 69 20.6 73 73 Calm 29.97 1015 10 16.09344 0 0
10:55 am 10:55 Sunny 80 26.8 70 21.3 72 72 Calm 29.97 1015 10 16.09344 0 0
11:15 am 11:15 Sunny 81 27.3 70 21 69 69 Calm 29.97 1015 10 16.09344 0 0
11:35 am 11:35 Sunny 82 28 69 20.8 65 65 NNW 5 7 29.94 1014 10 16.09344 0 0
11:55 am 11:55 Sunny 82 28 69 20.5 64 64 N 3 6 29.94 1014 10 16.09344 0 0
12:15 pm 12:15 Sunny 84 28.7 69 20.3 60 60 NNW 5 7 29.94 1014 10 16.09344 0 0
12:35 pm 12:35 Sunny 84 28.8 69 20.5 61 61 NNE 3 6 29.94 1014 10 16.09344 0 0
12:55 pm 12:55 Sunny 85 29.3 68 19.8 57 57 NNE 5 7 29.94 1014 10 16.09344 0 0
1:15 pm 13:15 Sunny 85 29.6 65 18.3 51 51 N 5 7 29.94 1014 10 16.09344 0 0
1:35 pm 13:35 Sunny 86 30 65 18.3 49 49 NNE 5 7 29.94 1014 10 16.09344 0 0
1:55 pm 13:55 Sunny 86 30.2 60 15.7 41 41 Calm 29.94 1014 10 16.09344 0 0
2:15 pm 14:15 Sunny 87 30.5 60 15.3 40 40 Calm 29.91 1013 10 16.09344 0 0
2:35 pm 14:35 Sunny 87 30.7 55 12.8 33 33 Calm 29.91 1013 10 16.09344 0 0
2:55 pm 14:55 Sunny 87 30.6 60 15.4 40 40 Calm 29.91 1013 10 16.09344 0 0
3:15 pm 15:15 Sunny 87 30.8 58 14.4 37 37 Calm 29.91 1013 10 16.09344 0 0
3:35 pm 15:35 Sunny 88 30.9 57 14 36 36 Calm 29.91 1013 10 16.09344 0 0
3:55 pm 15:55 Sunny 87 30.8 60 15.6 40 40 Calm 29.91 1013 10 16.09344 0 0
4:15 pm 16:15 Sunny 87 30.8 59 15.1 39 39 Calm 29.91 1013 10 16.09344 0 0
4:35 pm 16:35 Sunny 88 31.1 59 14.8 37 37 Calm 29.91 1013 10 16.09344 0 0
4:55 pm 16:55 Sunny 88 31 57 14 35 35 Calm 29.91 1013 10 16.09344 0 0
5:15 pm 17:15 Sunny 88 31 60 15.7 40 40 SE 3 6 29.91 1013 10 16.09344 0 0
5:35 pm 17:35 Sunny 88 31 60 15.3 39 39 SSE 5 7 29.91 1013 10 16.09344 0 0
5:55 pm 17:55 Sunny 87 30.8 62 16.8 43 43 SSE 3 6 29.91 1013 10 16.09344 0 0
6:15 pm 18:15 Sunny 87 30.6 63 17.2 45 45 SSE 3 6 29.91 1013 10 16.09344 0 0
6:35 pm 18:35 Sunny 87 30.4 62 16.9 44 44 Calm 29.91 1013 10 16.09344 0 0
6:55 pm 18:55 Sunny 86 30 65 18.1 49 49 ESE 3 6 29.91 1013 10 16.09344 0 0
7:15 pm 19:15 Sunny 85 29.5 69 20.4 58 58 Calm 29.91 1013 10 16.09344 0 0
7:35 pm 19:35 Sunny 84 29 68 19.9 58 58 Calm 29.91 1013 10 16.09344 0 0
7:55 pm 19:55 Sunny 83 28.3 70 21.1 65 65 Calm 29.91 1013 10 16.09344 0 0
8:15 pm 20:15 Sunny 82 27.7 70 21.2 68 68 Calm 29.91 1013 10 16.09344 0 0
8:35 pm 20:35 Sunny 79 25.9 69 20.6 73 73 Calm 29.94 1014 10 16.09344 0 0
8:55 pm 20:55 Clear 77 24.8 70 21.1 80 80 Calm 29.94 1014 10 16.09344 0 0
9:15 pm 21:15 Clear 75 23.8 71 21.4 86 86 Calm 29.94 1014 10 16.09344 0 0
9:35 pm 21:35 Clear 74 23.6 70 21.3 87 87 Calm 30 1016 10 16.09344 0 0
9:55 pm 21:55 Clear 72 22.4 70 20.9 91 91 Calm 30 1016 10 16.09344 0 0
10:15 pm 22:15 Clear 71 21.7 69 20.8 95 95 N 3 6 30 1016 10 16.09344 0 0
10:35 pm 22:35 Clear 71 21.5 68 20.1 92 92 N 7 11 30 1016 10 16.09344 0 0
10:55 pm 22:55 Clear 70 21.1 69 20.5 96 96 NNE 7 11 30.03 1017 10 16.09344 0 0
11:15 pm 23:15 Clear 70 21.1 69 20.7 98 98 NNE 6 9 30.03 1017 10 16.09344 0 0
11:35 pm 23:35 Clear 71 21.5 70 21 97 97 NNE 7 11 30.03 1017 10 16.09344 0 0
11:55 pm 23:55 Clear 70 21.3 69 20.7 96 96 NE 8 13 30.03 1017 10 16.09344 0 0

Powered by AerisWeather